Klamath Falls, OR

2:56 AM PST on December 03, 2016 (GMT -0800)
Klamath Falls International

Weather History for KLMT - August, 2013

Change the Weather History Date:

Tuesday, August 13, 2013

  Actual Average Record
Temperature  
Mean Temperature 66 °F 66 °F  
Max Temperature 86 °F 84 °F 100 °F (1998)
Min Temperature 45 °F 47 °F 39 °F (1965)
Degree Days  
Heating Degree Days 0 2  
Month to date heating degree days 35 19  
Since 1 June heating degree days 214 286  
Since 1 July heating degree days 36 69  
Cooling Degree Days 1 2  
Month to date cooling degree days 12 38  
Year to date cooling degree days 230 132  
Since 1 June cooling degree days 230 131  
Growing Degree Days 15 (Base 50)    
Moisture  
Dew Point 45 °F    
Average Humidity 54    
Maximum Humidity 93    
Minimum Humidity 19    
Precipitation  
Precipitation 0.00 in 0.01 in 0.48 in (1961)
Month to date precipitation 0.05 0.16  
Year to date precipitation 4.60 9.47  
Sea Level Pressure  
Sea Level Pressure 30.00 in    
Wind  
Wind Speed 3 mph (West)    
Max Wind Speed 13 mph    
Max Gust Speed 15 mph    
Visibility 10 miles    
Events      
T = Trace of Precipitation, MM = Missing Value Source: NWS Daily Summary

Daily Weather History Graph

Daily Weather History Graph

Search for Another Location

Airport or City:

Trip Planner

Search our weather history database for the weather conditions in past years. The results will help you decide how hot, cold, wet, or windy it might be!

Date:

Astronomy

Aug. 13, 2013 Rise Set
Actual Time 6:12 AM PDT 8:09 PM PDT
Civil Twilight 5:42 AM PDT 8:40 PM PDT
Nautical Twilight 5:05 AM PDT 9:17 PM PDT
Astronomical Twilight 4:24 AM PDT 9:57 PM PDT
Moon 1:21 PM PDT (8/13) 11:40 PM PDT (8/13)
Length of Visible Light 14h 57m
Length of Day
13h 57m
Waxing Crescent, 43% of the Moon is Illuminated
Aug 13
Waxing Crescent
Aug 14
First Quarter
Aug 20
Full
Aug 28
Last Quarter
Sep 5
New

Hourly Weather History & Observations

Time (PDT) Temp. Dew Point Humidity Pressure Visibility Wind Dir Wind Speed Gust Speed Precip Events Conditions
12:53 AM 54.0 °F 48.9 °F 83% 30.03 in 10.0 mi Calm Calm - N/A   Clear
1:53 AM 51.1 °F 48.0 °F 89% 30.04 in 9.0 mi Calm Calm - N/A   Clear
2:53 AM 50.0 °F 46.0 °F 86% 30.04 in 10.0 mi Calm Calm - N/A   Clear
3:53 AM 48.0 °F 44.1 °F 86% 30.04 in 10.0 mi Calm Calm - N/A   Clear
4:53 AM 46.9 °F 45.0 °F 93% 30.04 in 9.0 mi Calm Calm - N/A   Clear
5:53 AM 46.0 °F 44.1 °F 93% 30.06 in 9.0 mi Calm Calm - N/A   Clear
6:53 AM 48.0 °F 45.0 °F 89% 30.07 in 8.0 mi Calm Calm - N/A   Clear
7:53 AM 55.9 °F 48.0 °F 75% 30.07 in 10.0 mi Calm Calm - N/A   Clear
8:53 AM 63.0 °F 48.0 °F 58% 30.06 in 10.0 mi Calm Calm - N/A   Clear
9:53 AM 69.1 °F 46.0 °F 44% 30.04 in 10.0 mi WNW 5.8 mph - N/A   Haze
10:53 AM 73.0 °F 50.0 °F 44% 30.03 in 10.0 mi Variable 4.6 mph - N/A   Haze
11:53 AM 75.9 °F 46.9 °F 36% 30.03 in 10.0 mi Variable 3.5 mph - N/A   Haze
12:53 PM 79.0 °F 46.9 °F 32% 30.00 in 10.0 mi Variable 4.6 mph - N/A   Haze
1:53 PM 81.0 °F 43.0 °F 26% 29.99 in 10.0 mi SW 8.1 mph - N/A   Haze
2:53 PM 84.0 °F 41.0 °F 22% 29.97 in 10.0 mi SSW 6.9 mph - N/A   Haze
3:53 PM 84.0 °F 37.0 °F 19% 29.96 in 10.0 mi Variable 3.5 mph - N/A   Haze
4:53 PM 84.9 °F 37.9 °F 19% 29.94 in 10.0 mi WNW 3.5 mph - N/A   Haze
5:53 PM 84.9 °F 37.9 °F 19% 29.93 in 10.0 mi Calm Calm - N/A   Haze
6:53 PM 82.9 °F 39.9 °F 22% 29.93 in 10.0 mi Calm Calm - N/A   Haze
7:53 PM 79.0 °F 45.0 °F 30% 29.92 in 10.0 mi NNW 9.2 mph - N/A   Haze
8:53 PM 71.1 °F 48.0 °F 44% 29.95 in 10.0 mi WNW 10.4 mph - N/A   Haze
9:53 PM 62.1 °F 48.0 °F 60% 29.97 in 10.0 mi SW 4.6 mph - N/A   Haze
10:53 PM 64.0 °F 48.9 °F 58% 29.97 in 10.0 mi WSW 5.8 mph - N/A   Haze
11:53 PM 64.9 °F 50.0 °F 58% 29.97 in 10.0 mi NW 4.6 mph - N/A   Haze